Location: *
(37.5724°S, 58.0067°E)
Time: 12:14:56
(UTC+00:00)

Genesis I - Pass Details

Date: 17 January 2021
Orbit: 488 x 532 km, 64.5° (Epoch: 05 March)

Event Time Altitude Azimuth Distance (km) Brightness Sun altitude
Exits shadow 23:37:49 24° 279° (W) 1,128 4.4 -15.3°
Maximum altitude 23:39:29 34° 234° (SW) 883 4.2 -15.1°
Drops below altitude 10° 23:43:09 10° 167° (SSE) 1,780 6.7 -14.5°
Sets 23:45:29 0° 157° (SSE) 2,667 8.0 -14.2°
